Weather History for St. Augustine, FL

Change the Weather History Date:

Wednesday, October 10, 2012

  Actual Average Record
Temperature  
Mean Temperature 70 °F -  
Max Temperature 78 °F 78 °F 88 °F (1981)
Min Temperature 62 °F 66 °F 53 °F (2000)
Cooling Degree Days 5    
Growing Degree Days 20 (Base 50)    
Moisture  
Dew Point 64 °F    
Average Humidity 80    
Maximum Humidity 96    
Minimum Humidity 60    
Precipitation  
Precipitation 0.00 in - - ()
Sea Level Pressure  
Sea Level Pressure 30.11 in    
Wind  
Wind Speed 5 mph (North)    
Max Wind Speed 14 mph    
Max Gust Speed 16 mph    
Visibility 9 miles    
Events      
Averages and records for this station are not official NWS values.
T = Trace of Precipitation, MM = Missing Value Source: NWS Daily Summary

Daily Weather History Graph

Daily Weather History Graph

Search for Another Location

Airport:

Trip Planner

Search our weather history database for the weather conditions in past years. The results will help you decide how hot, cold, wet, or windy it might be!

Date:

Astronomy

Oct. 10, 2012 Rise Set
Actual Time 7:24 AM EDT 6:59 PM EDT
Civil Twilight 7:00 AM EDT 7:23 PM EDT
Nautical Twilight 6:32 AM EDT 7:51 PM EDT
Astronomical Twilight 6:04 AM EDT 8:18 PM EDT
Moon 2:20 AM EDT (10/10) 3:42 PM EDT (10/10)
Length of Visible Light 12h 23m
Length of Day
11h 35m
Waning Crescent, 27% of the Moon is Illuminated
Oct 10
Waning Crescent
Oct 15
New
Oct 21
First Quarter
Oct 29
Full
Nov 6
Last Quarter

Hourly Weather History & Observations

Time (EDT) Temp. Dew Point Humidity Pressure Visibility Wind Dir Wind Speed Gust Speed Precip Events Conditions
12:58 AM 64.0 °F 62.1 °F 93% 30.11 in 8.0 mi WNW 3.5 mph - N/A   Clear
1:58 AM 64.0 °F 62.1 °F 93% 30.10 in 5.0 mi Calm Calm - N/A   Partly Cloudy
2:58 AM 64.0 °F 62.1 °F 93% 30.08 in 9.0 mi NW 5.8 mph - N/A   Clear
3:58 AM 63.0 °F 61.0 °F 93% 30.08 in 8.0 mi WNW 4.6 mph - N/A   Clear
4:58 AM 63.0 °F 61.0 °F 93% 30.08 in 9.0 mi NW 5.8 mph - N/A   Clear
5:58 AM 62.1 °F 61.0 °F 96% 30.09 in 8.0 mi WNW 4.6 mph - N/A   Clear
7:58 AM 62.1 °F 61.0 °F 96% 30.12 in 5.0 mi NW 3.5 mph - N/A   Clear
8:58 AM 66.0 °F 63.0 °F 90% 30.14 in 9.0 mi NW 6.9 mph - N/A   Clear
9:58 AM 71.1 °F 66.0 °F 84% 30.15 in 10.0 mi NNW 5.8 mph - N/A   Clear
10:58 AM 75.0 °F 64.9 °F 71% 30.16 in 10.0 mi Variable 5.8 mph - N/A   Clear
11:58 AM 75.9 °F 62.1 °F 62% 30.15 in 10.0 mi North 8.1 mph - N/A   Partly Cloudy
12:58 PM 78.1 °F 63.0 °F 60% 30.13 in 10.0 mi NW 9.2 mph - N/A   Scattered Clouds
1:32 PM 77.0 °F 64.4 °F 65% 30.12 in 10.0 mi NE 10.4 mph - N/A   Mostly Cloudy
1:45 PM 75.2 °F 64.4 °F 69% 30.11 in 10.0 mi NNE 8.1 mph - N/A   Mostly Cloudy
1:58 PM 77.0 °F 66.0 °F 69% 30.11 in 10.0 mi NE 9.2 mph - N/A   Mostly Cloudy
2:36 PM 77.0 °F 66.2 °F 69% 30.10 in 10.0 mi NNE 10.4 mph - N/A   Mostly Cloudy
2:58 PM 75.9 °F 66.0 °F 71% 30.09 in 10.0 mi NE 13.8 mph - N/A   Mostly Cloudy
3:02 PM 77.0 °F 66.2 °F 69% 30.09 in 10.0 mi NNE 12.7 mph 16.1 mph N/A   Mostly Cloudy
3:58 PM 77.0 °F 66.0 °F 69% 30.08 in 10.0 mi NE 9.2 mph - N/A   Clear
4:58 PM 75.9 °F 64.9 °F 69% 30.07 in 10.0 mi East 5.8 mph - N/A   Clear
5:58 PM 75.9 °F 64.9 °F 69% 30.07 in 10.0 mi East 3.5 mph - N/A   Clear
6:58 PM 73.0 °F 64.9 °F 76% 30.08 in 10.0 mi SE 3.5 mph - N/A   Clear
7:58 PM 72.0 °F 66.0 °F 81% 30.09 in 10.0 mi South 3.5 mph - 0.00 in   Clear
8:58 PM 69.1 °F 64.9 °F 87% 30.11 in 10.0 mi Calm Calm - N/A   Clear
9:58 PM 68.0 °F 64.0 °F 87% 30.13 in 10.0 mi Calm Calm - N/A   Clear
10:58 PM 66.9 °F 64.0 °F 90% 30.15 in 10.0 mi Calm Calm - N/A   Clear
11:58 PM 66.0 °F 64.0 °F 93% 30.14 in 10.0 mi Calm Calm - N/A   Clear